• In Romania
  • List of Countries
  • For 7 days
  • Water Temperature
  • Satellite Maps
  • Weather Map
  • Weather Widgets
  • user-avatar
    Login

    Hourly Weather Kitzbuhel

    Today, 30 April, Sunday

    Time Temperature Precipitation Wind Pressure Humidity
    00:00 -1°C° 0 mm 1 mps 674 mmHg 92%
    01:00 -2°C° 0 mm 2 mps 674 mmHg 91%
    02:00 -2°C° 0 mm 2 mps 674 mmHg 92%
    03:00 -2°C° 0 mm 2 mps 674 mmHg 92%
    04:00 -2°C° 0 mm 2 mps 674 mmHg 92%
    05:00 -1°C° 0 mm 2 mps 674 mmHg 89%
    06:00 +2°C° 0 mm 2 mps 675 mmHg 87%
    07:00 +3°C° 0 mm 2 mps 675 mmHg 84%
    08:00 +5°C° 0 mm 2 mps 675 mmHg 81%
    09:00 +7°C° 0 mm 2 mps 675 mmHg 79%
    10:00 +9°C° 0 mm 2 mps 675 mmHg 77%
    11:00 +9°C° 0 mm 2 mps 674 mmHg 75%
    12:00 +10°C° 0 mm 2 mps 674 mmHg 74%
    13:00 +12°C° 0 mm 2 mps 674 mmHg 72%
    14:00 +12°C° 0 mm 2 mps 673 mmHg 73%
    15:00 +11°C° 0 mm 3 mps 673 mmHg 73%
    16:00 +11°C° 0 mm 3 mps 672 mmHg 74%
    17:00 +10°C° 0 mm 3 mps 672 mmHg 80%
    18:00 +8°C° 0 mm 3 mps 672 mmHg 85%
    19:00 +5°C° 0 mm 3 mps 671 mmHg 90%
    20:00 +4°C° 0 mm 3 mps 671 mmHg 91%
    21:00 +3°C° 0 mm 3 mps 672 mmHg 92%
    22:00 +2°C° 0 mm 3 mps 672 mmHg 92%
    23:00 +2°C° 0 mm 3 mps 671 mmHg 92%

    Tomorrow, 1 May, Monday

    Time Temperature Precipitation Wind Pressure Humidity
    00:00 +2°C° 0 mm 3 mps 671 mmHg 92%
    01:00 +1°C° 0 mm 3 mps 671 mmHg 91%
    02:00 +1°C° 0 mm 3 mps 671 mmHg 91%
    03:00 +1°C° 0 mm 3 mps 671 mmHg 90%
    04:00 0°C° 0 mm 3 mps 670 mmHg 90%
    05:00 +2°C° 0 mm 2 mps 671 mmHg 87%
    06:00 +4°C° 0 mm 2 mps 671 mmHg 84%
    07:00 +5°C° 0 mm 2 mps 671 mmHg 81%
    08:00 +6°C° 0 mm 2 mps 672 mmHg 79%
    09:00 +8°C° 0 mm 2 mps 672 mmHg 76%
    10:00 +9°C° 0 mm 2 mps 672 mmHg 73%
    11:00 +9°C° 0.1 mm 3 mps 672 mmHg 78%
    12:00 +9°C° 0.1 mm 3 mps 673 mmHg 82%
    13:00 +8°C° 0.1 mm 3 mps 673 mmHg 87%
    14:00 +7°C° 1.6 mm 3 mps 673 mmHg 90%
    15:00 +5°C° 1.6 mm 3 mps 673 mmHg 93%
    16:00 +4°C° 1.6 mm 3 mps 673 mmHg 96%
    17:00 +4°C° 2.2 mm 2 mps 673 mmHg 96%
    18:00 +4°C° 2.2 mm 2 mps 673 mmHg 97%
    19:00 +3°C° 2.2 mm 2 mps 674 mmHg 97%
    20:00 +2°C° 1.7 mm 2 mps 674 mmHg 97%
    21:00 +2°C° 1.7 mm 2 mps 674 mmHg 97%
    22:00 +3°C° 1.7 mm 1 mps 675 mmHg 97%
    23:00 +2°C° 0.6 mm 1 mps 675 mmHg 97%

    Day after tomorrow, 2 May, Tuesday

    Time Temperature Precipitation Wind Pressure Humidity
    00:00 +2°C° 0.6 mm 1 mps 675 mmHg 97%
    01:00 +2°C° 0.6 mm 1 mps 675 mmHg 97%
    02:00 +2°C° 0.5 mm 1 mps 675 mmHg 97%
    03:00 +2°C° 0.5 mm 1 mps 675 mmHg 97%
    04:00 +2°C° 0.5 mm 1 mps 675 mmHg 97%
    05:00 +3°C° 0.4 mm 1 mps 675 mmHg 97%
    06:00 +3°C° 0.4 mm 1 mps 676 mmHg 96%
    07:00 +4°C° 0.4 mm 1 mps 676 mmHg 96%
    08:00 +5°C° 0.1 mm 1 mps 676 mmHg 95%
    09:00 +6°C° 0.1 mm 1 mps 676 mmHg 93%
    10:00 +7°C° 0.1 mm 1 mps 676 mmHg 92%
    11:00 +7°C° 0 mm 1 mps 676 mmHg 91%
    12:00 +8°C° 0 mm 1 mps 676 mmHg 90%
    13:00 +9°C° 0 mm 1 mps 676 mmHg 89%
    14:00 +9°C° 0.1 mm 1 mps 676 mmHg 88%
    15:00 +9°C° 0.1 mm 2 mps 676 mmHg 88%
    16:00 +9°C° 0.1 mm 2 mps 675 mmHg 88%
    17:00 +8°C° 0.1 mm 2 mps 675 mmHg 90%
    18:00 +7°C° 0.1 mm 2 mps 675 mmHg 92%
    19:00 +5°C° 0.1 mm 2 mps 675 mmHg 95%
    20:00 +5°C° 0 mm 2 mps 675 mmHg 95%
    21:00 +4°C° 0 mm 2 mps 675 mmHg 95%
    22:00 +3°C° 0 mm 2 mps 675 mmHg 95%
    23:00 +2°C° 0 mm 2 mps 675 mmHg 94%

    3 May, Wednesday

    Time Temperature Precipitation Wind Pressure Humidity
    00:00 +2°C° 0 mm 2 mps 675 mmHg 94%
    01:00 +1°C° 0 mm 2 mps 675 mmHg 93%
    02:00 +1°C° 0 mm 2 mps 674 mmHg 92%
    03:00 +1°C° 0 mm 2 mps 674 mmHg 92%
    04:00 -1°C° 0 mm 2 mps 674 mmHg 91%
    05:00 +2°C° 0 mm 2 mps 674 mmHg 90%
    06:00 +3°C° 0 mm 2 mps 675 mmHg 89%
    07:00 +6°C° 0 mm 1 mps 675 mmHg 88%
    08:00 +7°C° 0 mm 1 mps 675 mmHg 85%
    09:00 +9°C° 0 mm 1 mps 675 mmHg 82%
    10:00 +10°C° 0 mm 1 mps 675 mmHg 80%
    11:00 +9°C° 0.1 mm 2 mps 675 mmHg 80%
    12:00 +10°C° 0.1 mm 2 mps 675 mmHg 80%
    13:00 +10°C° 0.1 mm 2 mps 675 mmHg 80%
    14:00 +10°C° 0.4 mm 2 mps 675 mmHg 81%
    15:00 +10°C° 0.4 mm 2 mps 675 mmHg 82%
    16:00 +10°C° 0.4 mm 2 mps 674 mmHg 84%
    17:00 +9°C° 0.6 mm 2 mps 674 mmHg 88%
    18:00 +7°C° 0.6 mm 2 mps 674 mmHg 92%
    19:00 +6°C° 0.6 mm 2 mps 674 mmHg 96%
    20:00 +5°C° 0.2 mm 2 mps 674 mmHg 96%
    21:00 +5°C° 0.2 mm 1 mps 674 mmHg 97%
    22:00 +3°C° 0.2 mm 1 mps 674 mmHg 98%
    23:00 +3°C° 0.2 mm 1 mps 674 mmHg 97%

    4 May, Thursday

    Time Temperature Precipitation Wind Pressure Humidity
    00:00 +3°C° 0.2 mm 1 mps 674 mmHg 96%
    01:00 +3°C° 0.2 mm 1 mps 674 mmHg 95%
    02:00 +3°C° 0.4 mm 1 mps 673 mmHg 95%
    03:00 +3°C° 0.4 mm 1 mps 673 mmHg 95%
    04:00 +3°C° 0.4 mm 1 mps 673 mmHg 95%
    05:00 +3°C° 0.4 mm 0 mps 673 mmHg 94%
    06:00 +5°C° 0.4 mm 0 mps 674 mmHg 93%
    07:00 +6°C° 0.4 mm 0 mps 674 mmHg 91%
    08:00 +8°C° 0.3 mm 1 mps 674 mmHg 89%
    09:00 +8°C° 0.3 mm 1 mps 674 mmHg 86%
    10:00 +9°C° 0.3 mm 1 mps 674 mmHg 83%
    11:00 +10°C° 0.4 mm 1 mps 674 mmHg 83%
    12:00 +10°C° 0.4 mm 1 mps 673 mmHg 82%
    13:00 +11°C° 0.4 mm 1 mps 673 mmHg 82%
    14:00 +10°C° 1.1 mm 1 mps 673 mmHg 84%
    15:00 +10°C° 1.1 mm 1 mps 673 mmHg 86%
    16:00 +10°C° 1.1 mm 1 mps 673 mmHg 88%
    17:00 +9°C° 1.2 mm 1 mps 673 mmHg 91%
    18:00 +8°C° 1.2 mm 1 mps 673 mmHg 94%
    19:00 +6°C° 1.2 mm 0 mps 673 mmHg 97%
    20:00 +7°C° 1 mm 1 mps 673 mmHg 97%
    21:00 +7°C° 1 mm 1 mps 673 mmHg 97%
    22:00 +6°C° 1 mm 1 mps 674 mmHg 97%
    23:00 +6°C° 0.6 mm 1 mps 674 mmHg 96%

    5 May, Friday

    Time Temperature Precipitation Wind Pressure Humidity
    00:00 +6°C° 0.6 mm 1 mps 674 mmHg 96%
    01:00 +5°C° 0.6 mm 1 mps 674 mmHg 96%
    02:00 +5°C° 0.2 mm 1 mps 674 mmHg 95%
    03:00 +5°C° 0.2 mm 1 mps 675 mmHg 95%
    04:00 +4°C° 0.2 mm 1 mps 675 mmHg 95%
    05:00 +5°C° 0.1 mm 1 mps 675 mmHg 93%
    06:00 +7°C° 0.1 mm 1 mps 676 mmHg 92%
    07:00 +8°C° 0.1 mm 1 mps 676 mmHg 91%
    08:00 +9°C° 0 mm 1 mps 676 mmHg 85%
    09:00 +10°C° 0 mm 1 mps 677 mmHg 80%
    10:00 +12°C° 0 mm 1 mps 677 mmHg 75%
    11:00 +13°C° 0 mm 1 mps 677 mmHg 72%
    12:00 +14°C° 0 mm 1 mps 677 mmHg 68%
    13:00 +14°C° 0 mm 1 mps 677 mmHg 65%
    14:00 +14°C° 0.1 mm 1 mps 677 mmHg 66%
    15:00 +14°C° 0.1 mm 1 mps 676 mmHg 66%
    16:00 +14°C° 0.1 mm 1 mps 676 mmHg 67%
    17:00 +12°C° 0.2 mm 1 mps 676 mmHg 76%
    18:00 +9°C° 0.2 mm 1 mps 675 mmHg 84%
    19:00 +6°C° 0.2 mm 0 mps 675 mmHg 93%
    20:00 +5°C° 0.1 mm 1 mps 675 mmHg 93%
    21:00 +4°C° 0.1 mm 1 mps 675 mmHg 93%
    22:00 +3°C° 0.1 mm 1 mps 675 mmHg 93%
    23:00 +3°C° 0 mm 1 mps 675 mmHg 92%
    Show more